Showing default

SDX01, 62459

Orbit data source: Space-Track

SDX01, 62459 is a payload satellite owned by ISRO (IN) in LEO that was launched on Mon, 30 Dec 2024 UTC via a PSLV launch vehicle from the Sirharikota (SRI). Payload-class satellites include a variety of spacecraft equipped with specific instruments for various scientific and technological missions. These include communications satellites like Starlink; space stations such as the ISS; scientific satellites like the Hubble; Earth observation satellites from companies like Planet Labs, Umbra, and HawkEye 360; GPS; miniature CubeSats for education and research; and military/defense satellites.

Loading next visibility...
Identifier
62459, 2024-253A
Orbit
LEO
Country
Flag of ININ / IND
Related business
Manufacturer
ISRO
Mission
Operational Civil Technology
Bus & Motor
SPADEX, Unknown motor
Mass
220 kg wet, ~180 kg dry
Launch date (UTC)
2024-12-30 (10 months ago)
Launch vehicle
PSLV
Launch site
Sirharikota (SRI)
Object type
Payload
Rocket body
Debris
Shape & HBR
Box + 2 Pan, 1.3 m
Radar Cross Section
0.901 m², Large (>1 m²)

Expand to show TLE details & history
Last TLE update: 1 day ago

TLE from 1 day ago
0 SDX01
1 62459U 24253A   25301.58374846  .00039380  00000-0  79939-3 0  9991
2 62459  54.9979 339.1847 0006650   7.2673 352.8454 15.46007028 46462
Epoch: 2025-10-28T14:00Z
TLE epoch observation values (Epoch: 2025-10-28T14:00:35.866Z)
Latitude
-0.00001°
Longitude
91.8661°
Altitude
425.032 km
Speed
7.66 km/s
True Right ascension
22h 36m 44s
True Declination
0° 00' 00"
Sunlit
Object was in full shadow at epoch
Visualization orbit readout
Latitude
Unknown
Longitude
Unknown
Altitude
Unknown
Speed
Unknown
Apparent Right ascension
Unknown
Apparent Declination
Unknown
Sunlit
N/A
Visualization observer readout
Local Sidereal Time
10:50:18
Azimuth
Unknown
Elevation
Unknown
Doppler factor
Unknown
Orbital elements
Apogee altitude
432.909 km
Perigee altitude
423.857 km
Semi-major axis
6,806.52 km
Eccentricity
0.00067
Inclination
54.9979°
RAAN
339.1847°
Arg. of periapsis
7.2673°
True anomaly
352.8359°
Mean anomaly
352.8454°
Eccentric anomaly
352.84065°
Mean motion
3.86505 °/min
Orbital period
93.14 mins
BSTAR
0.00079939
Loading maneuver chart data...
Computing Atmospheric mass density...
Loading historical data...
Loading historical data...
Loading historical data...
Loading historical data...
Loading historical data...
Loading historical data...
Loading historical data...
Other satellites on launch #253 in the year 2024 (2024-12-30 UTC)

Documentation

Showing up to 5 results
|